Weather History for Frenchville, ME

Change the Weather History Date:

Wednesday, November 21, 2012

  Actual Average Record
Temperature  
Mean Temperature 32 °F 28 °F  
Max Temperature 35 °F 33 °F 44 °F (1999)
Min Temperature 28 °F 22 °F 10 °F (2008)
Degree Days  
Heating Degree Days 33    
Month to date heating degree days 682  
Since 1 July heating degree days 1645  
Cooling Degree Days 0    
Month to date cooling degree days 0  
Year to date cooling degree days 203  
Moisture  
Dew Point 30 °F    
Average Humidity 93    
Maximum Humidity 100    
Minimum Humidity 76    
Precipitation  
Precipitation 0.00 in 0.10 in 0.24 in (1998)
Month to date precipitation 0.42 2.03  
Year to date precipitation 30.08 30.15  
Sea Level Pressure  
Sea Level Pressure 30.24 in    
Wind  
Wind Speed 6 mph (SSE)    
Max Wind Speed 10 mph    
Max Gust Speed 14 mph    
Visibility 5 miles    
Events Fog    
T = Trace of Precipitation, MM = Missing Value Source: NWS Daily Summary

Daily Weather History Graph

Daily Weather History Graph

Search for Another Location

Airport:

Trip Planner

Search our weather history database for the weather conditions in past years. The results will help you decide how hot, cold, wet, or windy it might be!

Date:

Astronomy

Nov. 21, 2012 Rise Set
Actual Time 6:46 AM EST 3:51 PM EST
Civil Twilight 6:12 AM EST 4:25 PM EST
Nautical Twilight 5:35 AM EST 5:03 PM EST
Astronomical Twilight 4:58 AM EST 5:39 PM EST
Moon 12:29 PM EST (11/21) No Moon Set
Length of Visible Light 10h 12m
Length of Day
9h 04m
First Quarter, 61% of the Moon is Illuminated
Nov 21
First Quarter
Nov 28
Full
Dec 6
Last Quarter
Dec 13
New
Dec 20
First Quarter

Hourly Weather History & Observations

Time (EST) Temp. Windchill Dew Point Humidity Pressure Visibility Wind Dir Wind Speed Gust Speed Precip Events Conditions
12:53 AM 30.9 °F 26.2 °F 24.1 °F 76% 30.23 in 10.0 mi East 4.6 mph - N/A   Clear
1:53 AM 30.0 °F 25.2 °F 24.1 °F 79% 30.24 in 10.0 mi East 4.6 mph - N/A   Clear
2:53 AM 28.9 °F 22.8 °F 24.1 °F 82% 30.24 in 10.0 mi East 5.8 mph - N/A   Mostly Cloudy
3:53 AM 28.9 °F 23.9 °F 25.0 °F 85% 30.27 in 10.0 mi ESE 4.6 mph - N/A   Overcast
4:53 AM 28.9 °F 22.8 °F 25.0 °F 85% 30.27 in 10.0 mi SE 5.8 mph - N/A   Overcast
5:53 AM 28.0 °F 20.8 °F 26.1 °F 92% 30.28 in 10.0 mi SE 6.9 mph - N/A   Overcast
6:04 AM 28.4 °F 21.2 °F 26.6 °F 93% 30.25 in 10.0 mi SE 6.9 mph - N/A   Overcast
6:11 AM 28.4 °F 20.4 °F 26.6 °F 93% 30.26 in 10.0 mi SE 8.1 mph - N/A   Overcast
6:53 AM 28.0 °F 22.8 °F 27.0 °F 96% 30.31 in 2.0 mi South 4.6 mph - N/A   Overcast
6:55 AM 28.4 °F 23.3 °F 26.6 °F 93% 30.27 in 1.5 mi South 4.6 mph - N/A   Overcast
7:03 AM 28.4 °F 23.3 °F 26.6 °F 93% 30.28 in 0.8 mi South 4.6 mph - N/A   Mist
7:53 AM 28.9 °F 21.1 °F 28.0 °F 96% 30.32 in 0.2 mi South 8.1 mph - N/A Fog Light Freezing Fog
8:53 AM 30.0 °F 23.2 °F 28.9 °F 96% 30.32 in 0.2 mi South 6.9 mph - N/A Fog Light Freezing Fog
9:53 AM 30.0 °F 23.2 °F 30.0 °F 100% 30.31 in 0.2 mi South 6.9 mph - N/A Fog Light Freezing Fog
10:53 AM 32.0 °F 27.5 °F 30.9 °F 96% 30.28 in 0.2 mi SSE 4.6 mph - N/A Fog Fog
11:33 AM 32.0 °F 26.4 °F 32.0 °F 100% 30.24 in 1.2 mi SSE 5.8 mph - N/A   Overcast
11:41 AM 33.8 °F 28.6 °F 32.0 °F 93% 30.24 in 1.8 mi South 5.8 mph - N/A   Overcast
11:51 AM 33.8 °F 29.6 °F 32.0 °F 93% 30.24 in 1.2 mi SE 4.6 mph - N/A   Overcast
11:53 AM 33.1 °F 27.7 °F 32.0 °F 96% 30.27 in 1.0 mi SSE 5.8 mph - N/A   Mist
12:00 PM 33.8 °F 29.6 °F 32.0 °F 93% 30.24 in 0.8 mi SSE 4.6 mph - N/A   Mist
12:15 PM 33.8 °F 27.7 °F 32.0 °F 93% 30.23 in 1.5 mi SE 6.9 mph - N/A   Overcast
12:18 PM 33.8 °F 28.6 °F 32.0 °F 93% 30.23 in 2.0 mi SE 5.8 mph - N/A   Overcast
12:30 PM 33.8 °F 27.7 °F 32.0 °F 93% 30.23 in 4.0 mi SE 6.9 mph - N/A   Overcast
12:53 PM 33.1 °F 28.7 °F 33.1 °F 100% 30.26 in 5.0 mi SSE 4.6 mph - N/A   Overcast
1:53 PM 34.0 °F 28.8 °F 33.1 °F 96% 30.25 in 7.0 mi SSE 5.8 mph - N/A   Overcast
2:29 PM 35.6 °F 30.7 °F 33.8 °F 93% 30.22 in 8.0 mi SSE 5.8 mph - N/A   Overcast
2:53 PM 35.1 °F 31.0 °F 33.1 °F 92% 30.25 in 9.0 mi SSE 4.6 mph - N/A   Overcast
3:53 PM 35.1 °F 29.3 °F 33.1 °F 92% 30.25 in 9.0 mi SSE 6.9 mph - N/A   Overcast
4:53 PM 34.0 °F 28.0 °F 33.1 °F 96% 30.25 in 9.0 mi SE 6.9 mph - N/A   Overcast
5:50 PM 33.8 °F 28.6 °F 32.0 °F 93% 30.21 in 8.0 mi SE 5.8 mph - N/A   Overcast
5:53 PM 33.1 °F 27.7 °F 32.0 °F 96% 30.24 in 7.0 mi SSE 5.8 mph - N/A   Overcast
6:49 PM 33.8 °F 27.7 °F 32.0 °F 93% 30.21 in 10.0 mi SSE 6.9 mph - N/A   Scattered Clouds
6:53 PM 33.1 °F 26.9 °F 32.0 °F 96% 30.24 in 10.0 mi SSE 6.9 mph - N/A   Partly Cloudy
7:53 PM 32.0 °F 26.4 °F 30.9 °F 96% 30.23 in 9.0 mi SSE 5.8 mph - N/A   Clear
8:53 PM 32.0 °F 25.6 °F 30.9 °F 96% 30.22 in 7.0 mi South 6.9 mph - N/A   Clear
9:11 PM 32.0 °F 26.4 °F 30.2 °F 93% 30.18 in 7.0 mi South 5.8 mph - N/A   Partly Cloudy
9:53 PM 32.0 °F 26.4 °F 30.9 °F 96% 30.21 in 6.0 mi South 5.8 mph - N/A   Partly Cloudy
10:16 PM 30.2 °F 22.6 °F 30.2 °F 100% 30.17 in 5.0 mi SSE 8.1 mph - N/A   Mostly Cloudy
10:53 PM 30.9 °F 22.8 °F 30.9 °F 100% 30.20 in 4.0 mi South 9.2 mph - N/A   Overcast
11:44 PM 30.2 °F 23.4 °F 30.2 °F 100% 30.16 in 2.0 mi South 6.9 mph - N/A   Overcast
11:53 PM 30.9 °F 23.5 °F 30.0 °F 96% 30.19 in 2.0 mi South 8.1 mph - N/A   Overcast